This is the latest recevied weather packets stored in our database for station/object KG4LKY-5. If no packets are shown the sender has not sent any weather packets the latest 1 day(s).
| Time | Temp. | Humidity | Pressure | Rain* | Wind** | Luminosity | Snow |
|---|---|---|---|---|---|---|---|
| 1778039913 | 15.56° C | 86% | 1009.9 hPa | 0 mm | - | - | - |
| 1778039613 | 16.11° C | 89% | 1010 hPa | 0.51 mm | - | - | - |
| 1778039313 | 15.56° C | 100% | 1010.3 hPa | 0.51 mm | - | - | - |
| 1778039012 | 15.56° C | 87% | 1010.3 hPa | 0.51 mm | - | - | - |
| 1778038412 | 15.56° C | 86% | 1010.5 hPa | 0.51 mm | - | - | - |
| 1778038111 | 15.56° C | 89% | 1010.6 hPa | 0.51 mm | - | - | - |
| 1778037810 | 15° C | 95% | 1010.3 hPa | 0.51 mm | - | - | - |
| 1778037510 | 15° C | 94% | 1010 hPa | 0.51 mm | - | - | - |
| 1778037209 | 15.56° C | 89% | 1010.4 hPa | 0.25 mm | - | - | - |
| 1778036909 | 15° C | 93% | 1010.5 hPa | 0.25 mm | - | - | - |
| 1778036609 | 15.56° C | 86% | 1010.2 hPa | 0.25 mm | - | - | - |
| 1778036308 | 16.11° C | 78% | 1010 hPa | 0.25 mm | - | - | - |
| 1778036009 | 16.67° C | 73% | 1009.9 hPa | 0 mm | - | - | - |
| 1778035708 | 16.11° C | 74% | 1010 hPa | 0 mm | - | - | - |
| 1778035407 | 17.78° C | 60% | 1010.4 hPa | 0 mm | - | - | - |
| 1778035107 | 18.33° C | 53% | 1010.6 hPa | 0 mm | - | - | - |
| 1778034807 | 18.89° C | 49% | 1010.5 hPa | 0 mm | - | - | - |
| 1778034506 | 19.44° C | 46% | 1010.5 hPa | 0 mm | - | - | - |
| 1778034206 | 20° C | 43% | 1010.1 hPa | 0 mm | - | - | - |
| 1778033605 | 19.44° C | 45% | 1009.9 hPa | 0 mm | - | - | - |
| 1778033305 | 19.44° C | 42% | 1009.9 hPa | 0 mm | - | - | - |
| 1778033005 | 18.89° C | 45% | 1009.6 hPa | 0 mm | - | - | - |
| 1778032404 | 19.44° C | 46% | 1009.5 hPa | 0 mm | - | - | - |
| 1778032104 | 18.89° C | 47% | 1009.6 hPa | 0 mm | - | - | - |
| 1778031503 | 17.78° C | 55% | 1009.6 hPa | 0 mm | - | - | - |
* Rain since midnight (hover to see other rain measurements)
** Current wind speed in m/s (hover to see current wind gust speed)